Home   Weather   Lethbridge   Past weeks

Flag for Canada Past Weather in Lethbridge, Alberta, Canada — Yesterday and Last 2 Weeks

Now
21 °F

Passing clouds.


Feels Like: 21 °F
Forecast: 15 / 25 °F
Wind: 2 mph from Southwest

Location: Lethbridge

Current Time: Jan 23, 2017 at 8:06:29 pm

Latest Report: Jan 23, 2017 at 7:00 pm


Visibility: 15 mi

Pressure: 29.97 "Hg (26.81 "Hg at 872m altitude)

Humidity: 86%

Dew Point: 18 °F

Location of LethbridgeLocation

Past Weather in Lethbridge — Graph

°F

Lethbridge Temperature Yesterday

Maximum temperature yesterday: 27 °F (at 10:00 am)
Minimum temperature yesterday: 19 °F (at 1:00 am)
Average temperature yesterday: 24 °F

High & Low Weather Summary for the Past Weeks

 TemperatureHumidityPressure
High50 °F (Jan 18, 1:00 pm)100% (Jan 22, 5:45 am)30.39 "Hg (Jan 22, 5:45 am)
Low-24 °F (Jan 10, 11:00 pm)46% (Jan 20, 3:00 pm)29.37 "Hg (Jan 20, 2:00 pm)
Average20 °F74%29.91 "Hg
* Reported Jan 8 6:00 pm — Jan 23 6:00 pm, Lethbridge, Weather by CustomWeather, © 2017

Note: Actual official high and low records may vary slightly from our data, if they occured in-between our weather recording intervals... More about our weather records

Advertising

Lethbridge Weather History for the Previous 24 Hours

Scroll right to see more
 ConditionsComfort  
Time TempWeatherWind HumidityBarometerVisibility
6:00 pm
Mon, Jan 23
23 °FPassing clouds.3 mph80%29.96 "Hg60 mi
5:00 pm23 °FBroken clouds.3 mph74%29.96 "Hg60 mi
4:00 pm25 °FPartly sunny.7 mph80%29.95 "Hg40 mi
3:00 pm25 °FBroken clouds.8 mph80%29.94 "Hg15 mi
2:42 pm27 °FBroken clouds.9 mph80%29.93 "Hg15 mi
2:00 pm25 °FPartly sunny.7 mph80%29.93 "Hg10 mi
1:00 pm25 °FMostly cloudy.3 mph80%29.93 "Hg8 mi
12:00 pm23 °FIce fog.6 mph93%29.95 "Hg5 mi
11:00 am21 °FIce fog.3 mph93%29.97 "Hg3 mi
10:00 am19 °FIce fog.6 mph93%29.98 "Hg2 mi
9:00 am19 °FIce fog.3 mph93%29.97 "Hg2 mi
8:37 am19 °FIce fog.3 mph93%29.96 "Hg2 mi
7:00 am19 °FIce fog.3 mph93%29.95 "Hg1 mi
6:00 am19 °FIce fog.6 mph93%29.93 "Hg1 mi
5:53 am19 °FIce fog.6 mph93%29.93 "Hg1 mi
5:00 am19 °FLight freezing rain. Ice fog.6 mphN/A29.93 "Hg1 mi
4:00 am19 °FLight freezing rain. Ice fog.7 mphN/A29.92 "Hg0 mi
3:00 am21 °FLight freezing rain. Ice fog.7 mphN/A29.92 "Hg0 mi
2:00 am21 °FLight freezing rain. Ice fog.8 mphN/A29.91 "Hg0 mi
1:21 am23 °FLight freezing rain. Ice fog.8 mphN/A29.90 "Hg0 mi
1:09 am23 °FLight mixture of precip. Ice fog.7 mphN/A29.90 "Hg0 mi
12:37 am23 °FLight freezing rain. Ice fog.8 mphN/A29.91 "Hg1 mi
12:24 am23 °FIce fog.7 mphN/A29.90 "Hg1 mi
12:00 am23 °FLow clouds.6 mphN/A29.91 "Hg1 mi
11:28 pm
Sun, Jan 22
23 °FLow clouds.6 mphN/A29.91 "Hg2 mi
11:18 pm23 °FLight snow. Low clouds.7 mphN/A29.91 "Hg2 mi
11:09 pm23 °FLow clouds.7 mphN/A29.91 "Hg1 mi
10:25 pm23 °FIce fog.6 mph100%29.92 "Hg1 mi
9:16 pm23 °FIce fog.8 mph100%29.93 "Hg2 mi
9:00 pm25 °FIce fog.7 mph93%29.93 "Hg3 mi
8:25 pm25 °FIce fog.5 mph93%29.93 "Hg3 mi
8:07 pm25 °FIce fog.5 mph93%29.94 "Hg2 mi
Weather by CustomWeather, © 2017

See weather overviewHow to use our weather pages